User: anonymous   Login
Location: Unspecified
(0.0000°N, 0.0000°E)
Time: 18:56:38
(UTC+00:00)
Language:

BIRD GG - Orbit

View from above orbital plane
View from above orbital plane
View from above satellite
View from above satellite

Ground track
Ground track

The orbit data is extracted from the following two-line orbital elements,

1 42821U 98067MV  19052.16975886  .00069641  00000-0  30751-3 0  9999
2 42821  51.6261 162.9597 0003100   3.8465 356.2562 15.83820067 93044
Epoch (UTC): 21 February 2019 04:04:27
Eccentricity: 0.0003100
inclination: 51.6261°
perigee height: 317 km
apogee height: 322 km
right ascension of ascending node: 162.9597°
argument of perigee: 3.8465°
revolutions per day: 15.83820067
mean anomaly at epoch: 356.2562°
orbit number at epoch: 9304

The dashed part of the orbit path shows where the satellite is in the earth's shadow,  

DLR